Flag for Germany Weather past 2 weeks in Leer, Lower Saxony, Germany

Now
55 °F

Sunny.


Feels Like: 55 °F
Forecast: 39 / 62 °F
Wind: 2 mph from Southeast

Location: Emden-Koenigspolder


UV Index: 0 (Low)

Visibility: 22 mi


Pressure: 30.43 "Hg

Humidity: 43%

Dew point: 33 °F

Location of LeerLocation

Historic Weather in Leer

°F

Leer temperature yesterday

Maximum temperature yesterday: 47 °F (at 3:00 PM)
Minimum temperature yesterday: 38 °F (at 10:00 PM)
Average temperature yesterday: 44 °F

Past Weeks' High & Low Weather Summary

 TemperatureHumidityPressure
High68 °F (Apr 7, 4:00 PM)100% (Apr 2, 2:00 AM)30.46 "Hg (Apr 2, 2:00 AM)
Low31 °F (Apr 16, 7:00 AM)43% (Apr 16, 3:00 PM)29.62 "Hg (Apr 8, 6:00 AM)
Average49 °F85%29.97 "Hg
* Reported Apr 1 3:00 PM — Apr 16 3:00 PM, Leer, Weather by CustomWeather, © 2014

Note: Actual official high and low records may vary slightly from our data, if they occured in-between our weather recording intervals... More about our weather records

Advertising

Historic Weather Conditions — Data for Previous 24 hours

 ConditionsComfort  
Time TempWeatherWind HumidityBarometerVisibility
3:00 PM
Apr 16
55 °FSunny.2 mph43%30.43 "Hg22 mi
2:00 PM54 °FSunny.2 mph44%30.45 "Hg19 mi
1:00 PM53 °FScattered clouds.2 mph44%30.46 "Hg19 mi
12:00 PM53 °FSunny.3 mph50%30.46 "Hg18 mi
11:00 AM51 °FSunny.3 mph53%30.46 "Hg25 mi
10:00 AM48 °FSunny.3 mph67%30.46 "Hg19 mi
9:00 AM43 °FSunny.3 mph86%30.46 "Hg19 mi
8:00 AM36 °FSunny.1 mph97%30.45 "Hg4 mi
7:00 AM31 °FSunny.1 mph99%30.44 "Hg0 mi
6:00 AM32 °FClear.No wind99%30.43 "Hg9 mi
5:00 AM34 °FOvercast.1 mph98%30.42 "Hg8 mi
4:00 AM36 °FOvercast.1 mph95%30.41 "Hg19 mi
3:00 AM37 °FOvercast.2 mph93%30.41 "Hg19 mi
1:00 AM36 °FPassing clouds.2 mph91%30.40 "Hg19 mi
12:00 AM37 °FPassing clouds.2 mph91%30.39 "Hg19 mi
10:00 PM
Apr 15
38 °FPassing clouds.2 mph88%30.37 "Hg22 mi
9:00 PM40 °FPassing clouds.3 mph83%30.35 "Hg25 mi
8:00 PM44 °FSunny.5 mph75%30.34 "Hg31 mi
7:00 PM45 °FOvercast.7 mph68%30.32 "Hg28 mi
6:00 PM45 °FOvercast.8 mph67%30.32 "Hg31 mi
4:00 PM46 °FOvercast.9 mph63%30.31 "Hg17 mi
Weather by CustomWeather, © 2014

See weather overview